E8376 Weather Reports


time (UTC)temp
C
wind
direction
speed
KPH
gust
KPH
rain 1hr
cm
rain 24hr
cm
rain mn
cm
humidity
%
barometer
mb
20260504202036 26 345 4.8 12.9 0.00 0.00 0.00 51 1014.3
20260504201535 26 180 3.2 12.9 0.00 0.00 0.00 51 1014.3
20260504201253 26 13 3.2 12.9 0.00 0.00 0.00 51 1014.3
20260504200536 26 33 3.2 9.7 0.00 0.00 0.00 51 1014.3
20260504200256 25 124 4.8 9.7 0.00 0.00 0.00 54 1014.5
20260504195532 25 9 3.2 8.0 0.00 0.00 0.00 54 1014.6
20260504195031 25 63 3.2 9.7 0.00 0.00 0.00 55 1015.1
20260504194525 26 166 4.8 14.5 0.00 0.00 0.00 52 1015.1
20260504194026 26 35 4.8 14.5 0.00 0.00 0.00 49 1014.9
20260504193753 26 239 4.8 12.9 0.00 0.00 0.00 50 1014.9
20260504193027 26 35 4.8 9.7 0.00 0.00 0.00 50 1015.0
20260504192526 25 299 3.2 9.7 0.00 0.00 0.00 51 1015.6
20260504192025 26 1 3.2 12.9 0.00 0.00 0.00 52 1015.6
20260504191526 26 274 4.8 12.9 0.00 0.00 0.00 50 1015.8
20260504191026 26 143 3.2 12.9 0.00 0.00 0.00 49 1015.8
20260504190742 27 338 3.2 11.3 0.00 0.00 0.00 49 1015.6
20260504190026 27 22 4.8 11.3 0.00 0.00 0.00 48 1015.3
20260504185746 26 4 3.2 16.1 0.00 0.00 0.00 51 1015.2
20260504185026 26 323 3.2 16.1 0.00 0.00 0.00 51 1015.4
20260504184526 26 268 3.2 16.1 0.00 0.00 0.00 52 1015.4
20260504184027 26 3 4.8 16.1 0.00 0.00 0.00 50 1015.8
20260504183523 26 128 6.4 20.9 0.00 0.00 0.00 51 1015.5
20260504183023 25 302 4.8 20.9 0.00 0.00 0.00 51 1016.0
20260504182523 26 213 3.2 17.7 0.00 0.00 0.00 51 1015.7
20260504182023 26 20 4.8 17.7 0.00 0.00 0.00 53 1015.7
20260504181523 26 306 4.8 17.7 0.00 0.00 0.00 49 1015.8
20260504181024 26 49 4.8 12.9 0.00 0.00 0.00 53 1016.2
20260504180523 26 82 4.8 12.9 0.00 0.00 0.00 53 1015.9
20260504180024 26 15 3.2 9.7 0.00 0.00 0.00 53 1015.8
20260504175747 26 307 3.2 11.3 0.00 0.00 0.00 52 1016.1
20260504175021 26 1 4.8 14.5 0.00 0.00 0.00 53 1016.1
20260504174521 26 304 4.8 14.5 0.00 0.00 0.00 52 1016.3
20260504174021 25 328 3.2 11.3 0.00 0.00 0.00 54 1016.0
20260504173521 25 265 3.2 11.3 0.00 0.00 0.00 53 1016.3
20260504173021 24 320 3.2 9.7 0.00 0.00 0.00 55 1016.5
20260504172521 24 264 3.2 12.9 0.00 0.00 0.00 57 1016.9
20260504172021 24 315 3.2 12.9 0.00 0.00 0.00 55 1017.0
20260504171522 25 2 3.2 14.5 0.00 0.00 0.00 55 1017.0
20260504171018 25 68 6.4 17.7 0.00 0.00 0.00 55 1016.9
20260504170529 25 333 6.4 17.7 0.00 0.00 0.00 53 1016.8
20260504160241 24 355 4.8 16.1 0.00 0.00 0.00 55 1017.2
20260504150505 23 293 4.8 14.5 0.00 0.00 0.00 59 1017.4
20260504150234 23 96 3.2 14.5 0.00 0.00 0.00 60 1017.2
20260504141000 19 347 3.2 9.7 0.00 0.00 0.00 73 1017.3
20260504140500 18 305 1.6 8.0 0.00 0.00 0.00 79 1017.3
20260504130454 12 0 0.0 8.0 0.00 0.00 0.00 93 1017.3
20260504110440 10 0 0.0 0.0 0.00 0.00 0.00 97 1018.4
20260504100414 10 0 0.0 1.6 0.00 0.00 0.00 97 1018.4
20260504081858 11 0 0.0 0.0 0.00 0.00 0.00 96 1018.4
20260504081400 11 0 0.0 0.0 0.00 0.00 0.00 96 1018.4
20260504081114 11 0 0.0 0.0 0.00 0.00 0.00 96 1018.4
20260504080400 11 0 0.0 1.6 0.00 0.00 0.00 96 1018.4
20260504080122 11 0 0.0 1.6 0.00 0.00 0.00 96 1018.3
20260504070345 12 0 0.0 3.2 0.00 0.00 0.00 96 1018.8
20260504050334 13 0 0.0 0.0 0.00 0.00 0.00 95 1019.3
20260504045830 13 0 0.0 0.0 0.00 0.00 0.00 95 1019.3
20260504045321 13 0 0.0 0.0 0.00 0.00 0.00 95 1019.3
20260504045038 13 0 0.0 0.0 0.00 0.00 0.00 95 1019.4
20260504044316 13 0 0.0 0.0 0.00 0.00 0.00 95 1019.4
20260504044037 13 0 0.0 3.2 0.00 0.00 0.00 95 1019.4
20260504043537 13 0 0.0 3.2 0.00 0.00 0.00 95 1019.4
20260504042817 13 18 0.0 1.6 0.00 0.00 0.00 95 1019.3
20260504042541 13 0 0.0 1.6 0.00 0.00 0.00 95 1019.3
20260504041816 13 0 0.0 0.0 0.00 0.00 0.00 95 1019.4
20260504041317 13 0 0.0 0.0 0.00 0.00 0.00 94 1019.3
20260504040817 13 0 0.0 0.0 0.00 0.00 0.00 94 1019.3
20260504040535 13 0 0.0 0.0 0.00 0.00 0.00 94 1019.3
20260504035817 13 0 0.0 0.0 0.00 0.00 0.00 94 1019.3
20260504035317 13 0 0.0 3.2 0.00 0.00 0.00 94 1019.3
20260504034817 13 0 0.0 3.2 0.00 0.00 0.00 94 1019.3
20260504034311 13 0 0.0 1.6 0.00 0.00 0.00 94 1019.3
20260504033811 13 0 0.0 1.6 0.00 0.00 0.00 93 1019.4
20260504033534 13 0 0.0 3.2 0.00 0.00 0.00 93 1019.4
20260504032811 13 0 0.0 3.2 0.00 0.00 0.00 93 1019.4
20260504032311 14 0 0.0 1.6 0.00 0.00 0.00 93 1019.4
20260504031811 14 0 0.0 3.2 0.00 0.00 0.00 92 1019.5
20260504031312 14 0 0.0 3.2 0.00 0.00 0.00 92 1019.4
20260504030811 14 0 0.0 3.2 0.00 0.00 0.00 92 1019.5
20260504030312 14 0 0.0 3.2 0.00 0.00 0.00 92 1019.5
20260504025812 14 26 0.0 1.6 0.00 0.00 0.00 92 1019.6
20260504025308 14 0 0.0 1.6 0.00 0.00 0.00 91 1019.6
20260504024808 14 0 0.0 1.6 0.00 0.00 0.00 91 1019.7
20260504024308 15 0 0.0 1.6 0.00 0.00 0.00 91 1019.7
20260504023808 15 0 0.0 0.0 0.00 0.00 0.00 90 1019.6
20260504023309 15 0 0.0 0.0 0.00 0.00 0.00 90 1019.7
20260504022808 15 0 0.0 0.0 0.00 0.00 0.00 90 1019.7
20260504022308 15 0 0.0 1.6 0.00 0.00 0.00 89 1019.6
20260504021809 15 0 0.0 1.6 0.00 0.00 0.00 89 1019.6
20260504021529 15 0 0.0 1.6 0.00 0.00 0.00 88 1019.6
20260504020808 15 0 0.0 1.6 0.00 0.00 0.00 88 1019.5
20260504020309 15 0 0.0 1.6 0.00 0.00 0.00 88 1019.4
20260504020252 16 0 0.0 0.0 0.00 0.00 0.00 87 1019.3
20260504015309 16 0 0.0 0.0 0.00 0.00 0.00 86 1019.2
20260504014809 16 0 0.0 0.0 0.00 0.00 0.00 86 1019.1
20260504014308 16 0 0.0 0.0 0.00 0.00 0.00 85 1019.1
20260504013809 16 0 0.0 0.0 0.00 0.00 0.00 85 1019.0
20260504013308 16 0 0.0 0.0 0.00 0.00 0.00 84 1019.0
20260504012808 17 0 0.0 0.0 0.00 0.00 0.00 84 1018.9
20260504012308 17 0 0.0 0.0 0.00 0.00 0.00 83 1018.9
20260504011308 17 0 0.0 0.0 0.00 0.00 0.00 82 1018.8
20260504010808 17 0 0.0 0.0 0.00 0.00 0.00 81 1018.8
20260504010538 18 0 0.0 0.0 0.00 0.00 0.00 80 1018.6
20260504005808 18 0 0.0 0.0 0.00 0.00 0.00 79 1018.6
20260504005307 18 0 0.0 0.0 0.00 0.00 0.00 79 1018.3
20260504004808 19 0 0.0 0.0 0.00 0.00 0.00 76 1018.3
20260504004308 19 0 0.0 0.0 0.00 0.00 0.00 75 1018.3
20260504003808 20 0 0.0 0.0 0.00 0.00 0.00 72 1018.5
20260504003309 20 0 0.0 0.0 0.00 0.00 0.00 75 1018.4
20260504002807 20 0 0.0 1.6 0.00 0.00 0.00 76 1018.2
20260504002307 20 0 0.0 1.6 0.00 0.00 0.00 72 1018.2
20260504001808 21 0 0.0 1.6 0.00 0.00 0.00 70 1018.3
20260504001304 21 0 0.0 1.6 0.00 0.00 0.00 69 1018.3
20260504000804 21 274 0.0 1.6 0.00 0.00 0.00 66 1018.2
20260504000304 22 0 0.0 0.0 0.00 0.00 0.00 64 1018.3
20260504000036 22 0 0.0 1.6 0.00 0.00 0.00 63 1018.1
20260503235304 23 0 0.0 3.2 0.00 0.00 0.00 63 1018.2
20260503235029 23 0 0.0 3.2 0.00 0.00 0.00 64 1018.3
20260503234304 24 0 0.0 4.8 0.00 0.00 0.00 60 1018.1
20260503233805 25 327 0.0 4.8 0.00 0.00 0.00 57 1018.2
20260503233305 25 0 0.0 3.2 0.00 0.00 0.00 54 1018.0
20260503232802 25 321 0.0 3.2 0.00 0.00 0.00 54 1017.7
20260503232305 25 0 0.0 1.6 0.00 0.00 0.00 55 1017.7
20260503231803 26 229 0.0 4.8 0.00 0.00 0.00 52 1017.5
20260503231303 25 0 1.6 6.4 0.00 0.00 0.00 48 1017.7
20260503231015 25 333 1.6 6.4 0.00 0.00 0.00 48 1017.9
20260503230259 25 322 1.6 4.8 0.00 0.00 0.00 49 1017.8
20260503225801 25 329 1.6 4.8 0.00 0.00 0.00 49 1018.0
20260503225259 25 329 1.6 6.4 0.00 0.00 0.00 49 1018.0
20260503224759 25 338 3.2 6.4 0.00 0.00 0.00 49 1017.9
20260503224259 25 311 3.2 8.0 0.00 0.00 0.00 49 1017.9
20260503223759 25 267 3.2 8.0 0.00 0.00 0.00 49 1018.1
20260503223300 25 304 3.2 8.0 0.00 0.00 0.00 49 1018.2
20260503222800 24 4 3.2 6.4 0.00 0.00 0.00 52 1018.4
20260503222259 25 275 3.2 6.4 0.00 0.00 0.00 50 1018.5
20260503222252 25 318 3.2 8.0 0.00 0.00 0.00 49 1018.5
20260503221259 25 213 3.2 9.7 0.00 0.00 0.00 48 1018.2
20260503220800 25 0 3.2 9.7 0.00 0.00 0.00 50 1018.2
20260503220258 25 286 3.2 11.3 0.00 0.00 0.00 47 1018.2
20260503215759 25 2 3.2 11.3 0.00 0.00 0.00 49 1018.3
20260503215258 25 292 3.2 9.7 0.00 0.00 0.00 50 1018.5
20260503214756 25 347 3.2 11.3 0.00 0.00 0.00 49 1018.3
20260503214254 25 0 3.2 11.3 0.00 0.00 0.00 49 1018.4
20260503213758 25 311 3.2 9.7 0.00 0.00 0.00 48 1018.7
20260503213255 25 311 4.8 11.3 0.00 0.00 0.00 49 1019.0
20260503213025 25 339 4.8 11.3 0.00 0.00 0.00 48 1018.8
20260503212249 25 358 3.2 9.7 0.00 0.00 0.00 48 1019.0
20260503211748 25 21 3.2 14.5 0.00 0.00 0.00 49 1018.8
20260503211249 26 13 4.8 14.5 0.00 0.00 0.00 48 1018.8
20260503210749 26 341 4.8 14.5 0.00 0.00 0.00 48 1018.8
20260503210249 26 280 4.8 14.5 0.00 0.00 0.00 48 1018.9
20260503205749 26 218 4.8 11.3 0.00 0.00 0.00 48 1019.0
20260503205247 25 281 4.8 11.3 0.00 0.00 0.00 48 1018.9
20260503204746 25 0 6.4 14.5 0.00 0.00 0.00 48 1019.6
20260503204244 26 336 4.8 16.1 0.00 0.00 0.00 50 1019.4
20260503203744 25 344 4.8 16.1 0.00 0.00 0.00 47 1019.3
20260503203245 25 322 4.8 14.5 0.00 0.00 0.00 48 1019.5
20260503203002 25 288 4.8 14.5 0.00 0.00 0.00 48 1019.7
20260503202244 25 63 4.8 11.3 0.00 0.00 0.00 49 1019.6